AAL604 KRIC-KMIA

Flight info

Callsign AAL604
Flight time N/A
Altitude 36000
Route HOUKY MAZON KOHLS SKARP Y313 HOAGG BNFSH3
Aircraft B738/M-SDE2E3FGHIRWXY/LB1

Departure

Time 2026-04-26 22:54
Airport Richmond International Airport (KRIC)

Arrival

Time N/A
Airport Miami International Airport (KMIA)
Time Latitude Longitude Altitude Speed Heading
2026-04-26 22:35 37.50896 -77.32986 172 ft 0 kts 301°
2026-04-26 22:44 37.50886 -77.32964 172 ft 4 kts 294°
2026-04-26 22:44 37.50874 -77.32937 172 ft 4 kts 296°
2026-04-26 22:45 37.50870 -77.32921 172 ft 4 kts 250°
2026-04-26 22:45 37.50887 -77.32900 172 ft 4 kts 206°
2026-04-26 22:45 37.50912 -77.32888 172 ft 3 kts 195°
2026-04-26 22:45 37.50916 -77.32886 172 ft 0 kts 194°
2026-04-26 22:48 37.50914 -77.32887 172 ft 1 kts 194°
2026-04-26 22:48 37.50882 -77.32897 172 ft 9 kts 194°
2026-04-26 22:48 37.50790 -77.32927 172 ft 18 kts 193°
2026-04-26 22:48 37.50644 -77.32968 172 ft 24 kts 194°
2026-04-26 22:49 37.50509 -77.33000 172 ft 14 kts 165°
2026-04-26 22:49 37.50465 -77.32900 172 ft 14 kts 103°
2026-04-26 22:49 37.50444 -77.32760 173 ft 19 kts 96°
2026-04-26 22:49 37.50432 -77.32570 172 ft 23 kts 94°
2026-04-26 22:50 37.50421 -77.32372 172 ft 22 kts 94°
2026-04-26 22:50 37.50408 -77.32180 172 ft 22 kts 94°
2026-04-26 22:50 37.50398 -77.31993 172 ft 21 kts 94°
2026-04-26 22:50 37.50388 -77.31814 172 ft 20 kts 94°
2026-04-26 22:51 37.50367 -77.31641 172 ft 20 kts 121°
2026-04-26 22:51 37.50255 -77.31539 172 ft 20 kts 147°
2026-04-26 22:51 37.50128 -77.31437 172 ft 23 kts 147°
2026-04-26 22:51 37.49979 -77.31317 172 ft 28 kts 147°
2026-04-26 22:52 37.49812 -77.31184 172 ft 28 kts 147°
2026-04-26 22:52 37.49652 -77.31056 172 ft 26 kts 147°
2026-04-26 22:52 37.49547 -77.30973 172 ft 11 kts 148°
2026-04-26 22:52 37.49493 -77.30910 172 ft 11 kts 97°
2026-04-26 22:53 37.49524 -77.30826 172 ft 11 kts 60°
2026-04-26 22:53 37.49569 -77.30737 172 ft 15 kts 48°
2026-04-26 22:53 37.49675 -77.30766 173 ft 25 kts 326°
2026-04-26 22:53 37.50036 -77.31057 171 ft 97 kts 327°
2026-04-26 22:54 37.50776 -77.31662 208 ft 152 kts 328°
2026-04-26 22:54 37.51667 -77.32445 990 ft 156 kts 327°
2026-04-26 22:54 37.52677 -77.32898 1856 ft 155 kts
2026-04-26 22:54 37.53767 -77.32422 2228 ft 184 kts 35°
2026-04-26 22:55 37.54544 -77.31040 2514 ft 213 kts 68°
2026-04-26 22:55 37.54663 -77.29129 2944 ft 230 kts 97°
2026-04-26 22:55 37.53921 -77.27262 3281 ft 249 kts 133°
2026-04-26 22:55 37.52458 -77.26135 3820 ft 251 kts 167°
2026-04-26 22:56 37.50717 -77.25975 4317 ft 257 kts 185°
2026-04-26 22:56 37.48868 -77.26190 4705 ft 273 kts 189°
2026-04-26 22:56 37.46987 -77.26493 5603 ft 270 kts 190°
2026-04-26 22:56 37.45130 -77.26800 6558 ft 269 kts 189°
2026-04-26 22:57 37.43265 -77.27099 7313 ft 272 kts 189°
2026-04-26 22:57 37.41404 -77.27387 8204 ft 269 kts 189°
2026-04-26 22:57 37.39522 -77.27673 8906 ft 275 kts 189°
2026-04-26 22:57 37.37621 -77.27956 9761 ft 275 kts 188°
2026-04-26 22:58 37.35708 -77.28236 10410 ft 282 kts 188°
2026-04-26 22:58 37.33671 -77.28534 10598 ft 306 kts 188°
2026-04-26 22:58 37.31482 -77.28852 10773 ft 328 kts 188°
2026-04-26 22:58 37.29161 -77.29185 11177 ft 340 kts 188°
2026-04-26 22:59 37.26805 -77.29519 11782 ft 342 kts 188°
2026-04-26 22:59 37.24447 -77.29850 11974 ft 341 kts 188°
2026-04-26 22:59 37.22054 -77.30187 12401 ft 348 kts 188°
2026-04-26 22:59 37.19675 -77.30522 13150 ft 349 kts 188°
2026-04-26 23:00 37.17218 -77.30868 13891 ft 353 kts 188°
2026-04-26 23:00 37.14768 -77.31213 14534 ft 357 kts 188°
2026-04-26 23:00 37.12282 -77.31563 15182 ft 361 kts 188°